Flag for Afghanistan Weather past 2 weeks in Kabul, Afghanistan

Now
82 °F

Haze.


Feels Like: 82 °F
Forecast: 34 / 80 °F
Wind: 23 mph from Northwest

Location: Peshawar Airport

Current Time: May 26, 2015 at 2:34:41 AM

Latest Report: May 26, 2015 at 1:30 AM


Visibility: 2 mi

Pressure: 29.62 "Hg

Humidity: 45%

Dew point: 59 °F

Location of KabulLocation

Historic Weather in Kabul — Graph

°F

Kabul temperature yesterday

Maximum temperature yesterday: 93 °F (at 11:30 AM)
Minimum temperature yesterday: 77 °F (at 3:30 AM)
Average temperature yesterday: 86 °F

Past Weeks' High & Low Weather Summary

 TemperatureHumidityPressure
High104 °F (May 21, 2:30 PM)88% (May 11, 1:30 PM)29.92 "Hg (May 11, 1:30 PM)
Low64 °F (May 13, 4:30 AM)19% (May 25, 5:30 PM)29.50 "Hg (May 23, 2:30 PM)
Average83 °F53%29.71 "Hg
* Reported May 11 12:30 AM — May 26 12:30 AM, Kabul, Weather by CustomWeather, © 2015

Note: Actual official high and low records may vary slightly from our data, if they occured in-between our weather recording intervals... More about our weather records

Advertising

Kabul weather history for previous 24 hours

 ConditionsComfort  
Time TempWeatherWind HumidityBarometerVisibility
12:30 AM
Tue, May 26
84 °FHaze.21 mph43%29.59 "Hg2 mi
11:30 PM
Mon, May 25
84 °FHaze.30 mph40%29.59 "Hg2 mi
10:30 PM84 °FPassing clouds.41 mph37%29.59 "Hg2 mi
8:30 PM88 °FHaze.35 mph33%29.56 "Hg2 mi
6:30 PM91 °FScattered clouds.35 mph21%29.53 "Hg1 mi
5:30 PM93 °FScattered clouds.46 mph19%29.53 "Hg1 mi
4:30 PM93 °FScattered clouds.23 mph28%N/A3 mi
3:30 PM91 °FScattered clouds.14 mph30%N/A3 mi
2:30 PM91 °FScattered clouds.12 mph30%N/A3 mi
1:30 PM93 °FScattered clouds.9 mph32%29.53 "Hg3 mi
12:30 PM93 °FScattered clouds.7 mph24%29.56 "Hg3 mi
11:30 AM93 °FScattered clouds.12 mph24%29.59 "Hg3 mi
10:30 AM91 °FHaze.7 mph28%29.59 "Hg3 mi
9:30 AM90 °FHaze.9 mph29%29.59 "Hg3 mi
8:30 AM88 °FSunny.7 mph33%29.59 "Hg3 mi
7:30 AM82 °FHaze.5 mph42%29.59 "Hg2 mi
6:30 AM79 °FHaze.5 mph45%29.59 "Hg2 mi
5:30 AM77 °FHaze.5 mph47%29.59 "Hg2 mi
4:29 AM77 °FHaze.No wind47%29.59 "Hg2 mi
3:30 AM77 °FPassing clouds.7 mph47%29.59 "Hg2 mi
2:30 AM79 °FThundershowers. Partly cloudy.12 mph45%29.59 "Hg2 mi
Weather by CustomWeather, © 2015

See weather overviewHow to use our weather pages